DW8871 Weather Reports


Display with metric or nautical units.
time (UTC)temp
F
wind
direction
speed
MPH
gust
MPH
rain 1hr
in
rain 24hr
in
rain mn
in
humidity
%
barometer
mb
20260502123035 36 0 0.0 0.0 0.00 0.00 0.00 89 1021.4
20260502121541 34 0 0.0 0.0 0.00 0.00 0.00 88 1021.3
20260502114532 34 0 0.0 0.0 0.00 0.00 0.00 87 1020.9
20260502113028 34 0 0.0 0.0 0.00 0.00 0.00 86 1020.7
20260502111530 35 0 0.0 0.0 0.00 0.00 0.00 86 1020.6
20260502110032 35 0 0.0 0.0 0.00 0.00 0.00 85 1020.6
20260502110020 36 49 0.0 0.0 0.00 0.00 0.00 85 1019.7
20260502104531 35 0 0.0 0.0 0.00 0.00 0.00 84 1020.6
20260502103038 36 0 0.0 0.0 0.00 0.00 0.00 83 1020.4
20260502101541 36 0 0.0 0.0 0.00 0.00 0.00 83 1020.3
20260502091530 37 0 0.0 0.0 0.00 0.00 0.00 80 1020.0
20260502071530 41 0 0.0 2.0 0.00 0.00 0.00 69 1019.5
20260502070030 41 0 0.0 1.0 0.00 0.00 0.00 70 1019.6
20260502070027 41 49 0.0 0.0 0.00 0.00 0.00 71 1018.7
20260502064532 41 0 0.0 2.0 0.00 0.00 0.00 72 1019.7
20260502063030 41 0 0.0 1.0 0.00 0.00 0.00 73 1019.7
20260502061529 41 0 0.0 2.0 0.00 0.00 0.00 75 1019.7
20260502060029 41 0 0.0 0.0 0.00 0.00 0.00 73 1019.8
20260502060018 41 66 0.0 0.0 0.00 0.00 0.00 74 1018.9
20260502054532 41 0 0.0 1.0 0.00 0.00 0.00 73 1019.8
20260502053030 42 0 0.0 0.0 0.00 0.00 0.00 71 1019.7
20260502051533 42 0 0.0 0.0 0.00 0.00 0.00 70 1019.8
20260502050037 43 0 0.0 0.0 0.00 0.00 0.00 69 1019.7
20260502050028 43 66 0.0 0.0 0.00 0.00 0.00 69 1018.7
20260502044531 44 0 0.0 0.0 0.00 0.00 0.00 69 1019.7
20260502043029 44 0 0.0 1.0 0.00 0.00 0.00 69 1019.6
20260502041545 44 0 0.0 0.0 0.00 0.00 0.00 70 1019.5
20260502040028 45 0 0.0 0.0 0.00 0.00 0.00 70 1019.5
20260502040017 45 66 0.0 0.0 0.00 0.00 0.00 70 1018.4
20260502034530 45 0 0.0 0.0 0.00 0.00 0.00 69 1019.3
20260502033030 46 0 0.0 0.0 0.00 0.00 0.00 70 1019.2
20260502031527 47 0 0.0 0.0 0.00 0.00 0.00 70 1019.0
20260502030030 48 0 0.0 1.0 0.00 0.00 0.00 68 1018.8
20260502024534 49 0 0.0 0.0 0.00 0.00 0.00 65 1018.6
20260502023031 50 0 0.0 1.0 0.00 0.00 0.00 64 1018.3
20260502021528 52 0 0.0 0.0 0.00 0.00 0.00 60 1018.0
20260502020030 53 0 0.0 0.0 0.00 0.00 0.00 55 1017.8
20260502020028 53 47 0.0 0.0 0.00 0.00 0.00 55 1016.8
20260502014532 55 0 0.0 0.0 0.00 0.00 0.00 54 1017.5
20260502013032 56 0 0.0 1.0 0.00 0.00 0.00 49 1017.4
20260502011531 57 0 0.0 1.0 0.00 0.00 0.00 48 1017.2
20260502010030 58 0 0.0 2.0 0.00 0.00 0.00 46 1017.0
20260502010020 59 46 0.0 2.0 0.00 0.00 0.00 46 1016.0
20260502004528 60 51 0.0 3.0 0.00 0.00 0.00 44 1016.9
20260502003029 62 60 0.0 3.0 0.00 0.00 0.00 43 1016.6
20260502001532 62 0 0.0 3.0 0.00 0.00 0.00 42 1016.5
20260502000029 62 0 0.0 5.0 0.00 0.00 0.00 41 1016.5
20260502000014 62 45 0.0 4.0 0.00 0.00 0.00 41 1015.4
20260501234530 63 304 1.0 5.0 0.00 0.00 0.00 38 1016.4
20260501233029 64 0 0.0 9.0 0.00 0.00 0.00 37 1016.4
20260501231549 64 0 1.0 4.0 0.00 0.00 0.00 36 1016.4
20260501230032 65 0 0.0 8.0 0.00 0.00 0.00 42 1016.3
20260501230021 65 76 1.0 6.0 0.00 0.00 0.00 43 1015.1
20260501224529 65 80 1.0 6.0 0.00 0.00 0.00 40 1016.3
20260501223049 64 326 0.0 5.0 0.00 0.00 0.00 41 1016.3
20260501221528 63 0 1.0 4.0 0.00 0.00 0.00 38 1016.3
20260501220050 65 9 1.0 9.0 0.00 0.00 0.00 36 1015.3
20260501220030 64 31 1.0 11.0 0.00 0.00 0.00 35 1016.4
20260501214532 64 0 1.0 10.0 0.00 0.00 0.00 36 1016.5
20260501213036 65 17 1.0 8.0 0.00 0.00 0.00 35 1016.6
20260501211530 65 10 1.0 8.0 0.00 0.00 0.00 37 1016.8
20260501210032 63 0 2.0 9.0 0.00 0.00 0.00 38 1017.1
20260501210023 64 327 2.0 5.0 0.00 0.00 0.00 39 1016.1
20260501204532 63 0 1.0 11.0 0.00 0.00 0.00 38 1017.3
20260501203032 63 0 1.0 8.0 0.00 0.00 0.00 40 1017.4
20260501201528 64 339 2.0 11.0 0.00 0.00 0.00 40 1017.6
20260501200028 62 331 1.0 9.0 0.00 0.00 0.00 43 1017.6
20260501200024 63 40 1.0 8.0 0.00 0.00 0.00 43 1016.8
20260501194530 63 34 0.0 8.0 0.00 0.00 0.00 39 1017.8
20260501193029 64 0 3.0 11.0 0.00 0.00 0.00 35 1017.8
20260501191529 63 5 0.0 13.0 0.00 0.00 0.00 38 1017.9
20260501190030 64 0 2.0 8.0 0.00 0.00 0.00 40 1018.1
20260501190021 64 298 2.0 7.0 0.00 0.00 0.00 41 1017.1
20260501184530 63 342 0.0 6.0 0.00 0.00 0.00 40 1018.1
20260501183033 62 0 0.0 11.0 0.00 0.00 0.00 43 1018.2
20260501181534 62 304 4.0 13.0 0.00 0.00 0.00 39 1018.4
20260501180035 62 273 2.0 9.0 0.00 0.00 0.00 38 1018.5
20260501180017 62 273 3.0 8.0 0.00 0.00 0.00 39 1017.4
20260501174542 61 0 1.0 10.0 0.00 0.00 0.00 44 1018.6
20260501173037 61 236 1.0 11.0 0.00 0.00 0.00 43 1018.9
20260501171534 61 0 3.0 9.0 0.00 0.00 0.00 42 1018.9
20260501170036 60 0 1.0 10.0 0.00 0.00 0.00 42 1019.1
20260501170034 61 345 1.0 9.0 0.00 0.00 0.00 44 1018.1
20260501164534 60 350 2.0 9.0 0.00 0.00 0.00 44 1019.2
20260501163030 60 318 1.0 9.0 0.00 0.00 0.00 44 1019.1
20260501161532 58 0 1.0 9.0 0.00 0.00 0.00 46 1019.2
20260501160032 58 250 3.0 8.0 0.00 0.00 0.00 51 1019.1
20260501160023 58 250 3.0 7.0 0.00 0.00 0.00 52 1018.1
20260501154533 57 320 3.0 10.0 0.00 0.00 0.00 48 1019.1
20260501153028 56 295 0.0 8.0 0.00 0.00 0.00 52 1019.1
20260501151532 56 294 2.0 8.0 0.00 0.00 0.00 57 1019.0
20260501150036 55 249 4.0 9.0 0.00 0.00 0.00 54 1018.1
20260501150034 55 270 4.0 10.0 0.00 0.00 0.00 54 1019.0